Crane Lake, MN

2:44 PM CST on February 19, 2018 (GMT -0600)
Crane Lake

Weather History for KCDD - January, 2013

Change the Weather History Date:

Wednesday, January 23, 2013

  Actual Average Record
Temperature  
Mean Temperature -17 °F -  
Max Temperature -5 °F 15 °F 35 °F (2015)
Min Temperature -31 °F -1 °F -36 °F (2014)
Degree Days  
Heating Degree Days 82    
Moisture  
Dew Point -20 °F    
Average Humidity 76    
Maximum Humidity 84    
Minimum Humidity 63    
Precipitation  
Precipitation 0.00 in - - ()
Sea Level Pressure  
Sea Level Pressure 30.25 in    
Wind  
Wind Speed 3 mph (NNW)    
Max Wind Speed 16 mph    
Max Gust Speed 24 mph    
Visibility 7 miles    
Events Snow    
Averages and records for this station are not official NWS values.
T = Trace of Precipitation, MM = Missing Value Source: NWS Daily Summary

Daily Weather History Graph

Daily Weather History Graph

Search for Another Location

Airport or City:

Trip Planner

Search our weather history database for the weather conditions in past years. The results will help you decide how hot, cold, wet, or windy it might be!

Date:

Astronomy

Jan. 23, 2013 Rise Set
Actual Time 7:48 AM CST 4:55 PM CST
Civil Twilight 7:14 AM CST 5:30 PM CST
Nautical Twilight 6:36 AM CST 6:08 PM CST
Astronomical Twilight 5:59 AM CST 6:45 PM CST
Moon 2:02 PM CST (1/23) 5:04 AM CST (1/23)
Length of Visible Light 10h 15m
Length of Day
9h 06m
Waxing Gibbous, 89% of the Moon is Illuminated
Jan 23
Waxing Gibbous
Jan 26
Full
Feb 3
Last Quarter
Feb 10
New
Feb 17
First Quarter

Hourly Weather History & Observations

Time (CST) Temp. Windchill Dew Point Humidity Pressure Visibility Wind Dir Wind Speed Gust Speed Precip Events Conditions
12:13 AM -27.4 °F - -32.8 °F 75% 30.11 in 10.0 mi Calm Calm - N/A   Clear
12:33 AM -27.4 °F - -32.8 °F 75% 30.10 in 10.0 mi Calm Calm - N/A   Mostly Cloudy
12:53 AM -25.6 °F - -32.8 °F 69% 30.10 in 10.0 mi Calm Calm - N/A   Mostly Cloudy
1:13 AM -25.6 °F - -31.0 °F 76% 30.10 in 10.0 mi Calm Calm - N/A   Scattered Clouds
1:34 AM -23.8 °F - -29.2 °F 76% 30.09 in 10.0 mi Calm Calm - N/A   Scattered Clouds
1:54 AM -23.8 °F - -27.4 °F 83% 30.09 in 10.0 mi Calm Calm - N/A   Overcast
2:13 AM -22.0 °F - -27.4 °F 76% 30.09 in 10.0 mi Calm Calm - N/A   Mostly Cloudy
2:33 AM -20.2 °F - -25.6 °F 76% 30.09 in 10.0 mi Calm Calm - N/A   Scattered Clouds
2:53 AM -18.4 °F - -23.8 °F 76% 30.08 in 10.0 mi Calm Calm - N/A   Mostly Cloudy
3:14 AM -16.6 °F - -20.2 °F 84% 30.08 in 10.0 mi Calm Calm - N/A   Overcast
3:33 AM -14.8 °F - -18.4 °F 84% 30.08 in 10.0 mi Calm Calm - N/A   Overcast
3:53 AM -14.8 °F - -18.4 °F 84% 30.07 in 10.0 mi Calm Calm - N/A Snow Light Snow
4:13 AM -13.0 °F - -16.6 °F 84% 30.06 in 5.0 mi Calm Calm - N/A Snow Light Snow
4:34 AM -11.2 °F - -16.6 °F 77% 30.06 in 4.0 mi Calm Calm - N/A Snow Light Snow
4:53 AM -11.2 °F - -16.6 °F 77% 30.06 in 4.0 mi Calm Calm - N/A Snow Light Snow
5:13 AM -11.2 °F - -14.8 °F 84% 30.06 in 3.0 mi Calm Calm - N/A Snow Light Snow
5:33 AM -11.2 °F - -14.8 °F 84% 30.05 in 1.8 mi Calm Calm - N/A Snow Light Snow
5:54 AM -11.2 °F - -14.8 °F 84% 30.05 in 2.0 mi Calm Calm - N/A Snow Light Snow
6:13 AM -11.2 °F - -16.6 °F 77% 30.05 in 3.0 mi Calm Calm - N/A Snow Light Snow
6:33 AM -11.2 °F - -16.6 °F 77% 30.04 in 4.0 mi Calm Calm - N/A Snow Light Snow
6:54 AM -11.2 °F - -16.6 °F 77% 30.04 in 4.0 mi Calm Calm - N/A Snow Light Snow
7:13 AM -11.2 °F - -16.6 °F 77% 30.03 in 4.0 mi Calm Calm - N/A Snow Light Snow
7:33 AM -11.2 °F - -16.6 °F 77% 30.04 in 2.5 mi Calm Calm - N/A Snow Light Snow
7:53 AM -11.2 °F - -16.6 °F 77% 30.04 in 2.0 mi Calm Calm - N/A Snow Light Snow
8:13 AM -13.0 °F - -16.6 °F 84% 30.04 in 7.0 mi Calm Calm - N/A   Overcast
8:33 AM -11.2 °F - -14.8 °F 84% 30.05 in 7.0 mi Calm Calm - N/A Snow Light Snow
8:53 AM -7.6 °F - -11.2 °F 84% 30.06 in 5.0 mi Calm Calm - N/A Snow Light Snow
9:13 AM -5.8 °F -18.4 °F -9.4 °F 84% 30.07 in 3.0 mi NW 5.8 mph - N/A Snow Light Snow
9:33 AM -5.8 °F -19.9 °F -9.4 °F 84% 30.08 in 2.5 mi NW 6.9 mph - N/A Snow Light Snow
9:53 AM -5.8 °F -19.9 °F -9.4 °F 84% 30.10 in 5.0 mi NW 6.9 mph - N/A   Haze
10:13 AM -5.8 °F -24.4 °F -9.4 °F 84% 30.12 in 2.5 mi NNW 11.5 mph 19.6 mph N/A Snow Light Snow
10:33 AM -5.8 °F -26.0 °F -9.4 °F 84% 30.13 in 2.5 mi NNW 13.8 mph 20.7 mph N/A   Haze
10:53 AM -5.8 °F -24.4 °F -9.4 °F 84% 30.14 in 1.8 mi NW 11.5 mph 19.6 mph N/A   Haze
11:13 AM -5.8 °F -26.0 °F -11.2 °F 77% 30.16 in 2.5 mi NNW 13.8 mph 20.7 mph N/A   Haze
11:33 AM -5.8 °F -27.5 °F -11.2 °F 77% 30.17 in 2.0 mi NNW 16.1 mph 24.2 mph N/A   Haze
11:55 AM -5.8 °F -24.4 °F -11.2 °F 77% 30.18 in 2.0 mi NNW 11.5 mph 20.7 mph N/A   Haze
12:13 PM -5.8 °F -24.4 °F -11.2 °F 77% 30.19 in 4.0 mi NW 11.5 mph 19.6 mph N/A   Haze
12:40 PM -5.8 °F -24.4 °F -13.0 °F 71% 30.21 in 2.5 mi NNW 11.5 mph 17.3 mph N/A   Haze
12:55 PM -5.8 °F -26.0 °F -11.2 °F 77% 30.22 in 3.0 mi NNW 13.8 mph - N/A   Haze
1:14 PM -5.8 °F -26.0 °F -11.2 °F 77% 30.23 in 4.0 mi NW 13.8 mph 23.0 mph N/A   Haze
1:35 PM -5.8 °F -25.2 °F -13.0 °F 71% 30.25 in 4.0 mi NNW 12.7 mph 18.4 mph N/A   Haze
1:53 PM -5.8 °F -22.4 °F -13.0 °F 71% 30.26 in 4.0 mi NNW 9.2 mph 18.4 mph N/A   Haze
2:13 PM -5.8 °F -24.4 °F -14.8 °F 65% 30.29 in 10.0 mi NNW 11.5 mph 19.6 mph N/A   Mostly Cloudy
2:33 PM -5.8 °F -26.0 °F -14.8 °F 65% 30.31 in 3.0 mi NNW 13.8 mph 19.6 mph N/A   Haze
2:53 PM -7.6 °F -23.4 °F -14.8 °F 71% 30.32 in 4.0 mi North 8.1 mph 16.1 mph N/A   Haze
3:13 PM -7.6 °F -24.6 °F -14.8 °F 71% 30.34 in 5.0 mi North 9.2 mph 17.3 mph N/A   Haze
3:33 PM -7.6 °F -24.6 °F -14.8 °F 71% 30.36 in 10.0 mi NNW 9.2 mph 17.3 mph N/A   Clear
3:53 PM -7.6 °F -24.6 °F -16.6 °F 65% 30.37 in 10.0 mi NNW 9.2 mph 19.6 mph N/A   Clear
4:13 PM -9.4 °F -26.8 °F -16.6 °F 71% 30.39 in 10.0 mi NNW 9.2 mph 17.3 mph N/A   Clear
4:34 PM -9.4 °F -22.7 °F -16.6 °F 71% 30.40 in 10.0 mi North 5.8 mph - N/A   Clear
4:53 PM -11.2 °F -29.0 °F -18.4 °F 70% 30.42 in 10.0 mi NNW 9.2 mph - N/A   Clear
5:14 PM -11.2 °F -27.8 °F -18.4 °F 70% 30.43 in 10.0 mi NNW 8.1 mph - N/A   Clear
5:33 PM -11.2 °F -27.8 °F -18.4 °F 70% 30.44 in 10.0 mi NNW 8.1 mph - N/A   Clear
5:53 PM -13.0 °F -25.1 °F -18.4 °F 77% 30.45 in 10.0 mi NNW 4.6 mph - N/A   Clear
6:14 PM -14.8 °F -29.1 °F -20.2 °F 77% 30.47 in 10.0 mi NNW 5.8 mph - N/A   Clear
6:34 PM -14.8 °F -24.8 °F -20.2 °F 77% 30.48 in 10.0 mi NNW 3.5 mph - N/A   Clear
7:14 PM -16.6 °F -26.8 °F -20.2 °F 84% 30.52 in 10.0 mi NNW 3.5 mph - N/A   Clear
7:33 PM -16.6 °F -26.8 °F -22.0 °F 76% 30.51 in 10.0 mi NNW 3.5 mph - N/A   Clear
7:53 PM -16.6 °F -29.3 °F -22.0 °F 76% 30.53 in 10.0 mi NNW 4.6 mph - N/A   Clear
8:13 PM -16.6 °F - -23.8 °F 70% - 10.0 mi Calm Calm - N/A   Clear
8:34 PM -20.2 °F - -27.4 °F 69% 30.54 in 10.0 mi Calm Calm - N/A   Clear
8:53 PM -23.8 °F - -29.2 °F 76% 30.54 in 10.0 mi Calm Calm - N/A   Clear
9:13 PM -25.6 °F - -32.8 °F 69% 30.56 in 10.0 mi Calm Calm - N/A   Clear
9:33 PM -25.6 °F - -34.6 °F 63% 30.56 in 10.0 mi Calm Calm - N/A   Clear
9:53 PM -27.4 °F - -34.6 °F 69% 30.57 in 10.0 mi Calm Calm - N/A   Clear
10:13 PM -27.4 °F - -34.6 °F 69% 30.59 in 10.0 mi Calm Calm - N/A   Clear
10:33 PM -29.2 °F - -34.6 °F 75% 30.59 in 10.0 mi Calm Calm - N/A   Clear
10:54 PM -29.2 °F - -36.4 °F 68% 30.59 in 10.0 mi Calm Calm - N/A   Clear
11:13 PM -29.2 °F - -36.4 °F 68% 30.60 in 10.0 mi Calm Calm - N/A   Clear
11:53 PM -31.0 °F - -38.2 °F 68% 30.61 in 10.0 mi Calm Calm - N/A   Clear